SCP
0 0 0 0 0 0 0 0 0 0 0 -0 -0 -0 0 0 0 0 0 0 0 0 0 0 -0 0 -0 0 -0 -0 -0 -0 -0 0 0 0 0 0 0 0 0 0 0
0 0 0 0 0 0 0 0 0 0 0 -0 -0 0 0 -0 0 -0 -0 0 -0 -0 -0 0 -0 -0 -0 0 0 -0 -0 0 0 0 0 0 0 0 0 0 0 0 0
0 0 0 0 0 0 0 0 0 0 0 0 0 0 0 0 0 0 0 0 0 -0 -0 -0 -0 -0 -0 0 0 0 0 0 0 0 0 0 0 0 0 0 0 0 0
0 0 0 0 0 0 0 0 0 0 0 0 0 0 0 0 0 0 0 0 0 0 0 0 -0 -0 -0 0 0 0 0 0 0 0 0 0 0 0 0 0 0 0 0
0 0 0 1 0 0 0 0 0 0 0 0 0 0 0 0 0 0 0 0 0 0 0 0 0 0 0 0 0 0 0 0 0 0 0 0 0 0 0 0 0 0 0
0 0 0 0 0 0 0 0 0 0 0 0 0 0 0 0 0 0 0 0 0 0 0 0 0 0 0 0 0 0 0 0 0 0 0 0 0 0 0 0 0 0 0
0 0 0 0 1 0 0 0 0 0 0 0 0 0 0 0 0 0 0 0 0 0 0 0 0 0 0 0 0 0 0 0 0 0 0 0 0 0 0 0 0 0 0
0 0 1 0 0 0 0 0 1 1 1 1 0 1 0 0 0 0 0 0 0 0 0 0 0 0 0 0 0 0 0 0 0 0 0 0 0 0 0 0 0 0 0
0 0 1 1 0 0 0 0 1 1 1 1 1 1 1 1 0 0 0 0 0 0 0 0 0 0 0 0 0 0 0 0 0 0 0 0 0 0 0 0 0 0 0
0 0 1 1 1 0 1 1 1 1 1 1 1 1 1 0 0 0 0 0 0 0 0 0 0 0 0 0 0 0 0 0 0 0 0 0 0 0 0 0 0 0 0
0 0 0 0 1 1 1 1 1 1 0 0 0 0 0 0 0 0 0 0 0 0 0 0 0 0 0 0 0 0 0 0 0 0 0 0 0 0 0 0 0 0 0
0 0 0 0 0 0 0 0 0 0 0 0 0 0 0 0 0 0 0 0 0 0 0 0 0 0 0 0 0 0 0 0 0 0 0 0 0 0 0 0 0 0 0
0 0 0 0 0 0 0 0 0 0 0 0 0 0 0 0 0 0 0 0 0 0 0 0 0 0 0 0 0 0 0 0 0 0 0 0 0 0 0 0 0 0 0
0 0 0 0 0 0 0 0 0 0 0 0 0 0 0 0 0 0 0 0 0 0 0 0 0 0 0 0 0 0 0 0 0 0 0 0 0 0 0 0 0 0 0
0 0 0 0 0 0 0 0 0 0 0 0 0 0 0 0 0 0 0 0 0 0 0 0 0 0 0 0 0 0 0 0 0 0 0 0 0 0 0 0 0 0 0
0 0 0 0 0 0 0 0 0 0 0 0 0 0 0 0 0 0 0 0 0 0 0 0 0 0 0 0 0 0 0 0 0 0 0 0 0 0 0 0 0 0 0
0 0 0 0 0 0 0 0 0 0 0 0 0 0 0 0 0 0 0 0 0 0 0 0 0 0 0 0 0 0 0 0 0 0 0 0 0 0 0 0 0 0 0
0 0 0 0 0 -0 -0 0 0 0 0 0 0 0 0 0 0 0 0 0 0 0 0 0 0 0 0 0 0 0 0 0 0 0 0 0 0 0 0 0 0 0 0
0 0 0 0 0 0 0 -0 -0 -0 -0 0 0 0 0 0 0 0 0 0 0 0 0 0 0 0 0 0 0 0 0 0 0 0 0 0 0 0 0 0 0 0 0
0 0 0 0 0 0 0 0 0 0 0 0 0 0 0 0 0 0 0 0 0 0 0 0 0 0 0 0 0 0 0 0 0 0 0 0 0 0 0 0 0 0 0
0 0 0 0 0 0 0 0 0 0 0 0 0 0 0 0 0 0 0 0 0 0 0 0 0 0 0 0 0 -0 0 0 0 0 0 0 0 0 0 0 0 0 0
0 0 0 -0 -0 0 0 0 0 0 0 0 0 -0 -0 0 0 0 0 0 0 0 0 0 0 0 0 0 0 -0 0 0 0 0 0 0 0 0 0 0 0 0 0
0 0 0 0 0 0 0 0 0 0 0 0 0 0 0 0 0 0 0 0 0 0 0 0 0 0 0 0 0 0 0 0 0 0 0 0 0 0 0 0 0 0 0
-0 0 -0 0 0 0 0 0 0 0 0 0 0 0 0 0 0 0 0 0 0 0 0 0 0 0 0 0 0 0 0 0 0 0 0 0 0 0 0 0 0 0 0
0 -0 -0 -0 -0 0 0 -0 0 0 0 0 0 0 0 0 0 0 0 0 0 0 0 0 0 0 0 0 0 0 0 0 0 0 0 0 0 0 0 0 0 0 0
0 0 0 0 0 0 0 0 0 0 0 0 0 0 0 0 0 0 0 0 0 0 0 0 0 0 0 0 0 0 0 0 0 0 0 0 0 0 0 0 0 0 0
Wind_Speed_500mb
52 50 49 48 45 45 45 44 41 36 29 30 31 27 26 28 25 21 24 25 24 22 21 20 20 24 24 22 23 23 22 17 18 17 23 24 27 27 25 23 25 26 25
53 54 49 52 52 49 47 48 46 42 41 36 35 33 27 30 35 35 29 26 24 20 19 23 24 28 29 30 27 26 30 25 21 23 21 24 24 24 25 25 24 24 26
53 55 57 53 55 54 50 49 53 49 45 43 38 41 36 31 38 40 32 30 30 29 27 30 30 34 30 30 32 34 31 26 26 27 23 26 24 24 25 25 24 25 25
58 53 48 45 57 50 52 49 52 56 52 48 43 44 41 35 31 36 35 36 36 36 35 36 38 37 31 28 31 32 32 30 30 29 29 29 29 27 25 23 22 24 26
62 55 53 56 49 53 53 53 48 54 56 52 49 48 44 42 40 41 40 39 40 41 42 40 37 34 33 34 33 34 36 33 31 30 28 27 27 22 18 21 26 25 30
63 68 68 54 49 53 57 54 52 49 55 56 57 54 50 48 45 42 43 44 43 47 43 39 36 35 35 34 29 31 30 30 32 31 22 20 22 22 23 20 19 22 20
67 75 79 85 71 57 57 59 57 57 52 55 61 61 63 60 53 49 47 47 48 45 41 42 39 38 34 32 30 26 26 27 26 26 24 24 22 21 21 20 20 19 23
47 62 74 86 87 84 67 61 58 58 60 55 56 60 61 58 62 57 53 51 51 49 47 44 34 27 28 30 29 24 25 29 25 22 22 23 23 23 22 24 26 27 25
36 42 55 64 71 70 70 56 53 53 54 57 54 53 54 57 53 51 51 53 52 49 46 41 27 22 25 29 32 42 42 32 29 26 24 22 22 22 24 23 20 18 15
31 32 41 46 51 57 62 59 54 50 50 51 53 50 48 48 49 49 54 54 51 47 37 39 40 39 41 49 56 44 31 25 23 19 15 16 15 12 12 12 11 16 15
18 15 27 38 45 50 54 58 59 53 47 44 46 49 47 46 49 52 60 53 39 35 38 41 44 35 29 28 28 28 27 23 17 17 13 12 12 10 14 16 16 14 13
21 15 28 39 37 36 38 42 49 46 43 43 44 47 48 45 40 36 34 19 21 20 19 16 16 20 26 29 25 21 19 11 10 14 12 11 9 10 12 13 14 13 12
24 25 35 31 26 29 36 50 56 56 48 36 46 48 43 38 34 30 22 19 20 18 18 19 18 13 7 7 7 5 5 7 9 9 9 8 5 6 9 10 10 11 10
25 25 26 24 21 22 25 26 31 49 47 38 34 40 39 35 32 32 25 23 23 20 17 16 14 14 14 12 10 7 8 10 10 7 4 2 5 6 7 8 8 9 6
28 27 22 21 15 13 19 25 38 48 49 52 48 40 45 48 42 35 33 30 25 19 18 17 18 17 15 15 14 13 13 13 10 9 7 6 6 8 8 10 10 10 5
28 23 16 12 10 9 12 16 9 27 47 61 53 49 53 50 46 43 40 36 27 23 19 17 18 18 17 16 16 14 12 10 5 3 4 5 6 8 9 11 10 7 3
25 25 26 20 19 31 30 38 43 48 48 45 42 43 40 42 40 37 31 33 31 27 20 19 16 16 16 14 12 9 6 5 4 4 5 6 7 9 9 8 8 6 5
29 35 37 41 42 43 39 41 43 43 43 41 35 31 31 30 27 28 26 25 26 25 22 23 22 20 19 16 13 11 8 8 6 5 6 7 8 9 9 9 9 7 7
31 41 42 41 37 34 34 31 33 35 36 36 38 37 38 36 34 33 30 27 29 28 25 25 23 22 21 19 18 16 12 9 8 8 8 11 13 12 12 11 10 11 9
25 36 38 35 32 35 33 33 35 36 38 41 44 41 38 34 31 29 27 26 25 25 24 25 28 27 25 23 23 19 15 13 12 9 8 11 14 16 14 12 10 8 9
39 43 35 36 33 32 34 36 39 42 43 40 41 39 35 30 26 25 26 25 25 25 27 28 23 19 17 18 18 16 15 15 13 11 9 8 13 12 13 12 9 8 6
47 47 46 47 46 42 44 46 46 45 43 40 39 34 30 28 24 23 23 23 22 22 21 18 16 13 12 13 13 13 11 13 13 13 10 5 6 8 7 4 4 5 7
50 49 49 50 50 48 46 43 42 39 35 31 27 24 21 19 17 16 15 16 15 14 15 17 19 22 21 18 12 6 4 5 12 15 11 5 4 4 7 7 6 7 5
44 43 45 45 44 40 35 30 28 25 23 22 21 20 19 17 17 16 17 18 20 20 18 17 18 20 26 28 22 12 8 5 8 13 9 2 5 9 9 6 4 2 3
39 36 34 33 32 30 28 25 23 23 20 19 18 19 19 20 20 19 18 18 19 20 23 24 24 25 24 32 30 19 15 3 8 9 8 10 10 11 5 2 2 5 6
29 28 30 31 32 31 29 26 23 20 18 15 14 15 17 18 17 16 15 17 20 25 29 30 30 29 25 24 33 28 23 13 8 6 12 10 11 10 4 4 7 7 5
Wind_Direction_500mb
234 233 234 235 235 238 241 244 239 240 242 237 242 240 233 237 240 248 254 255 257 268 276 280 284 290 284 281 288 278 278 276 283 295 314 311 306 296 294 302 306 301 301
237 240 245 243 243 242 245 240 242 245 243 248 249 237 243 244 246 249 257 264 254 263 274 277 280 294 283 272 272 281 282 279 273 288 298 312 313 310 300 302 299 297 295
240 242 244 248 244 246 247 243 238 241 243 246 247 236 248 255 260 243 250 259 261 270 278 280 283 288 285 270 273 275 276 280 275 279 292 297 297 301 302 300 299 301 299
245 244 239 253 247 246 250 249 244 239 240 240 242 243 249 256 252 235 248 261 264 269 275 284 284 280 277 278 271 271 276 278 283 289 296 290 292 292 295 296 304 301 298
246 241 241 251 250 245 245 245 245 241 240 244 239 239 245 250 250 250 262 265 266 273 279 286 284 280 274 276 281 283 276 278 287 291 295 295 303 291 288 285 293 287 294
242 242 251 252 240 241 241 241 241 245 241 241 241 240 240 244 252 257 263 268 269 274 278 279 275 275 269 274 278 286 282 283 290 292 295 289 290 289 292 294 296 301 294
249 245 247 249 252 253 245 239 240 241 243 245 243 244 247 251 254 257 259 264 269 270 273 275 276 279 278 270 281 285 288 290 290 291 289 283 289 294 297 299 297 297 288
253 249 240 242 247 251 247 239 239 243 242 246 246 245 249 252 255 258 258 263 263 268 271 273 274 266 270 259 251 267 297 295 291 294 294 286 284 289 293 296 296 296 292
261 248 239 239 242 244 240 246 237 240 243 244 244 244 249 251 257 254 255 258 261 265 267 263 260 258 238 239 259 281 287 271 279 281 281 284 290 298 304 310 319 319 306
264 251 237 235 240 241 239 234 233 234 238 238 236 238 244 250 255 257 257 257 258 258 256 254 257 270 267 274 267 271 260 261 266 272 273 281 292 309 329 338 346 336 332
264 257 239 236 238 235 234 227 226 224 231 235 238 242 245 247 251 255 257 263 254 252 253 256 263 257 252 255 251 254 251 249 248 258 262 268 283 292 312 318 321 322 324
252 254 247 224 219 213 209 207 212 216 226 236 237 241 242 242 251 270 273 237 251 247 242 240 244 255 256 259 254 259 256 247 240 235 230 248 265 292 310 317 321 335 342
238 241 219 223 220 225 232 235 233 231 225 235 230 229 229 232 238 242 216 204 194 201 210 221 231 227 206 183 186 204 202 182 198 214 225 239 278 317 334 339 345 344 343
215 217 226 231 235 235 245 243 245 237 219 213 218 217 211 207 201 185 189 188 188 183 178 166 157 157 154 148 159 165 174 161 168 170 153 82 13 5 352 355 2 352 352
207 211 221 239 231 246 243 241 231 228 233 228 220 213 199 181 175 173 165 154 142 127 128 141 134 129 127 130 130 138 132 118 111 101 78 35 4 355 348 344 341 345 5
210 218 200 184 200 184 157 146 172 215 200 194 187 178 166 158 141 138 140 136 133 129 129 139 135 138 135 131 127 118 108 103 84 35 9 10 1 351 348 347 349 357 359
190 174 165 157 161 134 129 125 118 111 107 111 116 119 121 128 132 132 123 117 113 111 129 127 129 136 136 135 128 115 97 85 70 54 34 17 357 342 338 338 350 7 353
156 149 142 141 141 135 134 133 130 127 127 123 121 118 117 122 124 117 113 119 130 137 146 142 135 130 128 120 107 94 79 63 58 44 29 359 351 344 335 335 335 343 354
153 154 149 144 144 146 145 142 138 142 143 141 137 132 124 119 121 124 131 135 143 142 134 126 125 122 111 99 89 80 71 66 53 44 32 17 9 3 1 3 357 345 350
180 170 161 156 154 154 156 156 149 143 136 133 131 128 123 122 123 128 135 138 138 142 140 131 125 116 107 96 85 79 70 60 51 40 31 24 20 24 25 32 34 34 26
164 156 161 153 149 140 137 138 137 135 133 132 128 124 124 123 127 133 136 137 137 135 142 142 135 131 124 111 98 91 75 52 36 23 14 14 21 25 32 39 42 38 27
151 145 141 138 140 138 136 134 133 133 134 136 136 134 130 124 122 132 144 146 145 148 160 173 179 183 176 151 111 102 66 38 28 17 5 342 355 16 17 7 358 346 348
137 138 139 138 137 136 138 138 138 142 144 147 147 148 148 150 157 158 165 175 181 191 207 220 226 228 225 200 170 126 76 68 26 17 358 320 291 305 313 303 307 313 327
142 144 146 144 142 145 147 149 153 154 157 164 171 176 185 193 202 207 214 219 225 232 236 247 260 267 249 225 210 188 188 126 20 8 9 277 266 295 299 278 297 282 162
145 147 149 151 153 155 152 156 159 161 164 173 181 194 204 218 227 236 235 230 230 240 257 267 269 270 272 231 220 214 211 242 337 340 3 357 334 318 273 270 196 176 182
159 154 152 149 151 151 152 160 166 172 177 178 185 200 211 216 221 226 236 249 259 267 269 265 259 258 261 240 217 220 224 262 276 298 335 344 340 322 275 200 175 174 188
Wind_Speed_850mb
52 50 49 48 45 45 45 44 41 36 29 30 31 27 26 28 25 21 24 25 24 22 21 20 20 24 24 22 23 23 22 17 18 17 23 24 27 27 25 23 25 26 25
53 54 49 52 52 49 47 48 46 42 41 36 35 33 27 30 35 35 29 26 24 20 19 23 24 28 29 30 27 26 30 25 21 23 21 24 24 24 25 25 24 24 26
53 55 57 53 55 54 50 49 53 49 45 43 38 41 36 31 38 40 32 30 30 29 27 30 30 34 30 30 32 34 31 26 26 27 23 26 24 24 25 25 24 25 25
58 53 48 45 57 50 52 49 52 56 52 48 43 44 41 35 31 36 35 36 36 36 35 36 38 37 31 28 31 32 32 30 30 29 29 29 29 27 25 23 22 24 26
62 55 53 56 49 53 53 53 48 54 56 52 49 48 44 42 40 41 40 39 40 41 42 40 37 34 33 34 33 34 36 33 31 30 28 27 27 22 18 21 26 25 30
63 68 68 54 49 53 57 54 52 49 55 56 57 54 50 48 45 42 43 44 43 47 43 39 36 35 35 34 29 31 30 30 32 31 22 20 22 22 23 20 19 22 20
67 75 79 85 71 57 57 59 57 57 52 55 61 61 63 60 53 49 47 47 48 45 41 42 39 38 34 32 30 26 26 27 26 26 24 24 22 21 21 20 20 19 23
47 62 74 86 87 84 67 61 58 58 60 55 56 60 61 58 62 57 53 51 51 49 47 44 34 27 28 30 29 24 25 29 25 22 22 23 23 23 22 24 26 27 25
36 42 55 64 71 70 70 56 53 53 54 57 54 53 54 57 53 51 51 53 52 49 46 41 27 22 25 29 32 42 42 32 29 26 24 22 22 22 24 23 20 18 15
31 32 41 46 51 57 62 59 54 50 50 51 53 50 48 48 49 49 54 54 51 47 37 39 40 39 41 49 56 44 31 25 23 19 15 16 15 12 12 12 11 16 15
18 15 27 38 45 50 54 58 59 53 47 44 46 49 47 46 49 52 60 53 39 35 38 41 44 35 29 28 28 28 27 23 17 17 13 12 12 10 14 16 16 14 13
21 15 28 39 37 36 38 42 49 46 43 43 44 47 48 45 40 36 34 19 21 20 19 16 16 20 26 29 25 21 19 11 10 14 12 11 9 10 12 13 14 13 12
24 25 35 31 26 29 36 50 56 56 48 36 46 48 43 38 34 30 22 19 20 18 18 19 18 13 7 7 7 5 5 7 9 9 9 8 5 6 9 10 10 11 10
25 25 26 24 21 22 25 26 31 49 47 38 34 40 39 35 32 32 25 23 23 20 17 16 14 14 14 12 10 7 8 10 10 7 4 2 5 6 7 8 8 9 6
28 27 22 21 15 13 19 25 38 48 49 52 48 40 45 48 42 35 33 30 25 19 18 17 18 17 15 15 14 13 13 13 10 9 7 6 6 8 8 10 10 10 5
28 23 16 12 10 9 12 16 9 27 47 61 53 49 53 50 46 43 40 36 27 23 19 17 18 18 17 16 16 14 12 10 5 3 4 5 6 8 9 11 10 7 3
25 25 26 20 19 31 30 38 43 48 48 45 42 43 40 42 40 37 31 33 31 27 20 19 16 16 16 14 12 9 6 5 4 4 5 6 7 9 9 8 8 6 5
29 35 37 41 42 43 39 41 43 43 43 41 35 31 31 30 27 28 26 25 26 25 22 23 22 20 19 16 13 11 8 8 6 5 6 7 8 9 9 9 9 7 7
31 41 42 41 37 34 34 31 33 35 36 36 38 37 38 36 34 33 30 27 29 28 25 25 23 22 21 19 18 16 12 9 8 8 8 11 13 12 12 11 10 11 9
25 36 38 35 32 35 33 33 35 36 38 41 44 41 38 34 31 29 27 26 25 25 24 25 28 27 25 23 23 19 15 13 12 9 8 11 14 16 14 12 10 8 9
39 43 35 36 33 32 34 36 39 42 43 40 41 39 35 30 26 25 26 25 25 25 27 28 23 19 17 18 18 16 15 15 13 11 9 8 13 12 13 12 9 8 6
47 47 46 47 46 42 44 46 46 45 43 40 39 34 30 28 24 23 23 23 22 22 21 18 16 13 12 13 13 13 11 13 13 13 10 5 6 8 7 4 4 5 7
50 49 49 50 50 48 46 43 42 39 35 31 27 24 21 19 17 16 15 16 15 14 15 17 19 22 21 18 12 6 4 5 12 15 11 5 4 4 7 7 6 7 5
44 43 45 45 44 40 35 30 28 25 23 22 21 20 19 17 17 16 17 18 20 20 18 17 18 20 26 28 22 12 8 5 8 13 9 2 5 9 9 6 4 2 3
39 36 34 33 32 30 28 25 23 23 20 19 18 19 19 20 20 19 18 18 19 20 23 24 24 25 24 32 30 19 15 3 8 9 8 10 10 11 5 2 2 5 6
29 28 30 31 32 31 29 26 23 20 18 15 14 15 17 18 17 16 15 17 20 25 29 30 30 29 25 24 33 28 23 13 8 6 12 10 11 10 4 4 7 7 5
Wind_Direction_850mb
234 233 234 235 235 238 241 244 239 240 242 237 242 240 233 237 240 248 254 255 257 268 276 280 284 290 284 281 288 278 278 276 283 295 314 311 306 296 294 302 306 301 301
237 240 245 243 243 242 245 240 242 245 243 248 249 237 243 244 246 249 257 264 254 263 274 277 280 294 283 272 272 281 282 279 273 288 298 312 313 310 300 302 299 297 295
240 242 244 248 244 246 247 243 238 241 243 246 247 236 248 255 260 243 250 259 261 270 278 280 283 288 285 270 273 275 276 280 275 279 292 297 297 301 302 300 299 301 299
245 244 239 253 247 246 250 249 244 239 240 240 242 243 249 256 252 235 248 261 264 269 275 284 284 280 277 278 271 271 276 278 283 289 296 290 292 292 295 296 304 301 298
246 241 241 251 250 245 245 245 245 241 240 244 239 239 245 250 250 250 262 265 266 273 279 286 284 280 274 276 281 283 276 278 287 291 295 295 303 291 288 285 293 287 294
242 242 251 252 240 241 241 241 241 245 241 241 241 240 240 244 252 257 263 268 269 274 278 279 275 275 269 274 278 286 282 283 290 292 295 289 290 289 292 294 296 301 294
249 245 247 249 252 253 245 239 240 241 243 245 243 244 247 251 254 257 259 264 269 270 273 275 276 279 278 270 281 285 288 290 290 291 289 283 289 294 297 299 297 297 288
253 249 240 242 247 251 247 239 239 243 242 246 246 245 249 252 255 258 258 263 263 268 271 273 274 266 270 259 251 267 297 295 291 294 294 286 284 289 293 296 296 296 292
261 248 239 239 242 244 240 246 237 240 243 244 244 244 249 251 257 254 255 258 261 265 267 263 260 258 238 239 259 281 287 271 279 281 281 284 290 298 304 310 319 319 306
264 251 237 235 240 241 239 234 233 234 238 238 236 238 244 250 255 257 257 257 258 258 256 254 257 270 267 274 267 271 260 261 266 272 273 281 292 309 329 338 346 336 332
264 257 239 236 238 235 234 227 226 224 231 235 238 242 245 247 251 255 257 263 254 252 253 256 263 257 252 255 251 254 251 249 248 258 262 268 283 292 312 318 321 322 324
252 254 247 224 219 213 209 207 212 216 226 236 237 241 242 242 251 270 273 237 251 247 242 240 244 255 256 259 254 259 256 247 240 235 230 248 265 292 310 317 321 335 342
238 241 219 223 220 225 232 235 233 231 225 235 230 229 229 232 238 242 216 204 194 201 210 221 231 227 206 183 186 204 202 182 198 214 225 239 278 317 334 339 345 344 343
215 217 226 231 235 235 245 243 245 237 219 213 218 217 211 207 201 185 189 188 188 183 178 166 157 157 154 148 159 165 174 161 168 170 153 82 13 5 352 355 2 352 352
207 211 221 239 231 246 243 241 231 228 233 228 220 213 199 181 175 173 165 154 142 127 128 141 134 129 127 130 130 138 132 118 111 101 78 35 4 355 348 344 341 345 5
210 218 200 184 200 184 157 146 172 215 200 194 187 178 166 158 141 138 140 136 133 129 129 139 135 138 135 131 127 118 108 103 84 35 9 10 1 351 348 347 349 357 359
190 174 165 157 161 134 129 125 118 111 107 111 116 119 121 128 132 132 123 117 113 111 129 127 129 136 136 135 128 115 97 85 70 54 34 17 357 342 338 338 350 7 353
156 149 142 141 141 135 134 133 130 127 127 123 121 118 117 122 124 117 113 119 130 137 146 142 135 130 128 120 107 94 79 63 58 44 29 359 351 344 335 335 335 343 354
153 154 149 144 144 146 145 142 138 142 143 141 137 132 124 119 121 124 131 135 143 142 134 126 125 122 111 99 89 80 71 66 53 44 32 17 9 3 1 3 357 345 350
180 170 161 156 154 154 156 156 149 143 136 133 131 128 123 122 123 128 135 138 138 142 140 131 125 116 107 96 85 79 70 60 51 40 31 24 20 24 25 32 34 34 26
164 156 161 153 149 140 137 138 137 135 133 132 128 124 124 123 127 133 136 137 137 135 142 142 135 131 124 111 98 91 75 52 36 23 14 14 21 25 32 39 42 38 27
151 145 141 138 140 138 136 134 133 133 134 136 136 134 130 124 122 132 144 146 145 148 160 173 179 183 176 151 111 102 66 38 28 17 5 342 355 16 17 7 358 346 348
137 138 139 138 137 136 138 138 138 142 144 147 147 148 148 150 157 158 165 175 181 191 207 220 226 228 225 200 170 126 76 68 26 17 358 320 291 305 313 303 307 313 327
142 144 146 144 142 145 147 149 153 154 157 164 171 176 185 193 202 207 214 219 225 232 236 247 260 267 249 225 210 188 188 126 20 8 9 277 266 295 299 278 297 282 162
145 147 149 151 153 155 152 156 159 161 164 173 181 194 204 218 227 236 235 230 230 240 257 267 269 270 272 231 220 214 211 242 337 340 3 357 334 318 273 270 196 176 182
159 154 152 149 151 151 152 160 166 172 177 178 185 200 211 216 221 226 236 249 259 267 269 265 259 258 261 240 217 220 224 262 276 298 335 344 340 322 275 200 175 174 188